Time,TemperatureF,DewpointF,PressureIn,WindDirection,WindDirectionDegrees,WindSpeedMPH,WindSpeedGustMPH,Humidity,HourlyPrecipIn,Conditions,Clouds,dailyrainin,SoftwareType,DateUTC
2013-01-25 00:00:00,32.7,12.1,30.29,SE,135,8.0,14.0,42,0.00,,,-99.99,WeatherLink 5.4,2013-01-25 05:00:00,
2013-01-25 00:30:00,31.7,12.2,30.29,SE,135,8.0,14.0,44,0.00,,,-99.99,WeatherLink 5.4,2013-01-25 05:30:00,
2013-01-25 01:00:00,30.9,13.0,30.29,SE,135,9.0,16.0,47,0.00,,,-99.99,WeatherLink 5.4,2013-01-25 06:00:00,
2013-01-25 01:30:00,30.2,12.8,30.28,SE,135,9.0,18.0,48,0.00,,,-99.99,WeatherLink 5.4,2013-01-25 06:30:00,
2013-01-25 02:00:00,30.0,13.1,30.30,SSE,157,8.0,17.0,49,0.00,,,-99.99,WeatherLink 5.4,2013-01-25 07:00:00,
2013-01-25 02:30:00,28.5,11.7,30.29,SE,135,8.0,13.0,49,0.00,,,-99.99,WeatherLink 5.4,2013-01-25 07:30:00,
2013-01-25 03:00:00,28.2,11.0,30.28,SSE,157,9.0,15.0,48,0.00,,,-99.99,WeatherLink 5.4,2013-01-25 08:00:00,
2013-01-25 03:30:00,27.8,10.6,30.29,SSE,157,9.0,16.0,48,0.00,,,-99.99,WeatherLink 5.4,2013-01-25 08:30:00,
2013-01-25 04:00:00,27.3,9.7,30.27,SSE,157,8.0,13.0,47,0.00,,,-99.99,WeatherLink 5.4,2013-01-25 09:00:00,
2013-01-25 04:30:00,27.3,10.2,30.25,SSE,157,9.0,14.0,48,0.00,,,-99.99,WeatherLink 5.4,2013-01-25 09:30:00,
2013-01-25 05:00:00,27.0,9.9,30.25,SSE,157,9.0,16.0,48,0.00,,,-99.99,WeatherLink 5.4,2013-01-25 10:00:00,
2013-01-25 05:30:00,26.6,9.5,30.25,SSE,157,9.0,14.0,48,0.00,,,-99.99,WeatherLink 5.4,2013-01-25 10:30:00,
2013-01-25 06:00:00,26.3,9.2,30.25,SSE,157,9.0,15.0,48,0.00,,,-99.99,WeatherLink 5.4,2013-01-25 11:00:00,
2013-01-25 06:30:00,26.1,9.1,30.23,SE,135,10.0,19.0,48,0.00,,,-99.99,WeatherLink 5.4,2013-01-25 11:30:00,
2013-01-25 07:00:00,26.5,9.9,30.25,SE,135,8.0,19.0,49,0.00,,,-99.99,WeatherLink 5.4,2013-01-25 12:00:00,
2013-01-25 07:30:00,26.2,15.7,30.24,SE,135,9.0,15.0,64,0.00,,,-99.99,WeatherLink 5.4,2013-01-25 12:30:00,
2013-01-25 08:00:00,25.7,15.6,30.24,SE,135,10.0,15.0,65,0.00,,,-99.99,WeatherLink 5.4,2013-01-25 13:00:00,
2013-01-25 08:06:00,25.9,16.1,30.24,SE,145,10.0,12.0,66,0.00,,OVC,0.00,VWS V12.07,2013-01-25 13:06:00,
2013-01-25 08:30:00,26.0,16.5,30.24,SE,135,9.0,17.0,67,0.00,,,-99.99,WeatherLink 5.4,2013-01-25 13:30:00,
2013-01-25 09:00:00,25.9,19.7,30.23,SE,135,9.0,13.0,77,0.00,,,-99.99,WeatherLink 5.4,2013-01-25 14:00:00,
2013-01-25 09:30:00,26.0,20.4,30.24,SE,135,8.0,14.0,79,0.00,,,-99.99,WeatherLink 5.4,2013-01-25 14:30:00,
2013-01-25 10:00:00,26.8,23.2,30.22,SE,135,10.0,16.0,86,0.00,,,-99.99,WeatherLink 5.4,2013-01-25 15:00:00,
2013-01-25 10:30:00,27.5,24.7,30.21,SE,135,9.0,17.0,89,0.00,,,-99.99,WeatherLink 5.4,2013-01-25 15:30:00,
2013-01-25 11:00:00,29.0,25.9,30.21,SE,135,7.0,13.0,88,0.00,,,-99.99,WeatherLink 5.4,2013-01-25 16:00:00,
2013-01-25 11:30:00,30.0,27.2,30.20,SE,135,7.0,13.0,89,0.00,,,-99.99,WeatherLink 5.4,2013-01-25 16:30:00,
2013-01-25 12:00:00,30.5,27.6,30.17,SE,135,8.0,13.0,89,0.00,,,-99.99,WeatherLink 5.4,2013-01-25 17:00:00,
2013-01-25 12:30:00,30.9,28.6,30.14,SE,135,10.0,17.0,91,0.00,,,-99.99,WeatherLink 5.4,2013-01-25 17:30:00,
2013-01-25 13:00:00,31.6,30.6,30.14,SE,135,8.0,14.0,96,0.03,,,-99.99,WeatherLink 5.4,2013-01-25 18:00:00,
2013-01-25 13:30:00,31.4,31.4,30.12,SE,135,6.0,11.0,100,0.07,,,-99.99,WeatherLink 5.4,2013-01-25 18:30:00,
2013-01-25 14:00:00,31.4,31.4,30.12,SE,135,0.0,4.0,100,0.09,,,-99.99,WeatherLink 5.4,2013-01-25 19:00:00,
2013-01-25 14:30:00,31.8,31.8,30.11,North,-999,0.0,0.0,100,0.05,,,-99.99,WeatherLink 5.4,2013-01-25 19:30:00,
2013-01-25 15:00:00,33.7,33.7,30.09,SE,135,0.0,5.0,100,0.01,,,-99.99,WeatherLink 5.4,2013-01-25 20:00:00,
2013-01-25 15:30:00,36.0,36.0,30.08,SE,135,1.0,7.0,100,0.01,,,-99.99,WeatherLink 5.4,2013-01-25 20:30:00,
2013-01-25 16:00:00,38.1,38.1,30.08,ESE,112,1.0,8.0,100,0.00,,,-99.99,WeatherLink 5.4,2013-01-25 21:00:00,
2013-01-25 16:30:00,39.3,39.3,30.08,East,90,3.0,10.0,100,0.00,,,-99.99,WeatherLink 5.4,2013-01-25 21:30:00,
2013-01-25 17:00:00,40.4,40.4,30.08,North,0,1.0,7.0,100,0.00,,,-99.99,WeatherLink 5.4,2013-01-25 22:00:00,
2013-01-25 17:30:00,40.5,40.5,30.09,NNW,337,3.0,7.0,100,0.00,,,-99.99,WeatherLink 5.4,2013-01-25 22:30:00,
2013-01-25 18:00:00,39.8,39.8,30.10,North,0,2.0,7.0,100,0.00,,,-99.99,WeatherLink 5.4,2013-01-25 23:00:00,
2013-01-25 18:30:00,39.7,39.7,30.11,NNW,337,4.0,10.0,100,0.00,,,-99.99,WeatherLink 5.4,2013-01-25 23:30:00,
2013-01-25 19:00:00,39.9,39.9,30.10,North,0,3.0,7.0,100,0.00,,,-99.99,WeatherLink 5.4,2013-01-26 00:00:00,
2013-01-25 19:30:00,40.3,40.3,30.11,NNW,337,1.0,5.0,100,0.01,,,-99.99,WeatherLink 5.4,2013-01-26 00:30:00,
2013-01-25 19:35:00,40.3,40.3,30.11,NNW,331,6.0,7.0,100,0.01,,OVC,0.14,VWS V12.07,2013-01-26 00:35:00,
2013-01-25 20:00:00,40.5,40.5,30.11,North,0,3.0,8.0,100,0.01,,,-99.99,WeatherLink 5.4,2013-01-26 01:00:00,
2013-01-25 20:30:00,40.8,40.8,30.11,North,0,1.0,6.0,100,0.00,,,-99.99,WeatherLink 5.4,2013-01-26 01:30:00,
2013-01-25 21:00:00,40.9,40.9,30.10,NNW,337,6.0,11.0,100,0.00,,,-99.99,WeatherLink 5.4,2013-01-26 02:00:00,
2013-01-25 21:30:00,41.3,41.3,30.11,NNW,337,6.0,15.0,100,0.00,,,-99.99,WeatherLink 5.4,2013-01-26 02:30:00,
2013-01-25 22:00:00,40.5,40.5,30.11,NNW,337,5.0,10.0,100,0.00,,,-99.99,WeatherLink 5.4,2013-01-26 03:00:00,
2013-01-25 22:30:00,39.6,39.6,30.11,NW,315,4.0,8.0,100,0.00,,,-99.99,WeatherLink 5.4,2013-01-26 03:30:00,
2013-01-25 23:00:00,38.5,38.5,30.11,North,0,2.0,6.0,100,0.00,,,-99.99,WeatherLink 5.4,2013-01-26 04:00:00,
2013-01-25 23:30:00,37.3,37.3,30.11,North,0,1.0,5.0,100,0.00,,,-99.99,WeatherLink 5.4,2013-01-26 04:30:00,